Chicago Executive, IL

6:06 PM CST on December 15, 2019 (GMT -0600)
Chicago Executive

Weather History for KPWK - November, 2019

Change the Weather History Date:

Friday, November 15, 2019

  Actual Average Record
Temperature  
Mean Temperature 31 °F 40 °F  
Max Temperature 39 °F 48 °F 69 °F (2001)
Min Temperature 23 °F 32 °F 15 °F (2014)
Degree Days  
Heating Degree Days 34 25  
Month to date heating degree days 489 323  
Since 1 July heating degree days 915 844  
Cooling Degree Days 0 0  
Month to date cooling degree days 0 0  
Year to date cooling degree days 996 789  
Moisture  
Dew Point 21 °F    
Average Humidity 71    
Maximum Humidity 88    
Minimum Humidity 60    
Precipitation  
Precipitation 0.00 in 0.11 in 0.14 in (2017)
Month to date precipitation 0.09 1.54  
Year to date precipitation 41.97 30.17  
Sea Level Pressure  
Sea Level Pressure 30.39 in    
Wind  
Wind Speed 4 mph ()    
Max Wind Speed 10 mph    
Max Gust Speed 17 mph    
Visibility 8.8 miles    
Events      
T = Trace of Precipitation, MM = Missing Value Source: Averaged Metar Reports

Daily Weather History Graph

Daily Weather History Graph

Search for Another Location

Airport or City:

Astronomy

Nov. 15, 2019 Rise Set
Actual Time 6:41 AM CST 4:30 PM CST
Civil Twilight 6:11 AM CST 5:00 PM CST
Nautical Twilight 5:37 AM CST 5:34 PM CST
Astronomical Twilight 5:04 AM CST 6:07 PM CST
Moon 7:03 PM CST (11/15) 9:39 AM CST (11/15)
Length of Visible Light 10h 49m
Length of Day
9h 48m
Waning Gibbous, 90% of the Moon is Illuminated
Nov 15
Waning Gibbous
Nov 19
Last Quarter
Nov 26
New
Dec 4
First Quarter
Dec 11
Full

Hourly Weather History & Observations

Time (CST) Temp. Windchill Dew Point Humidity Pressure Visibility Wind Dir Wind Speed Gust Speed Precip Events Conditions
12:52 AM 24.1 °F 16.0 °F 16.0 °F 71% 30.34 in 9.0 mi West 6.9 mph - N/A   Clear
1:52 AM 24.1 °F 17.0 °F 16.0 °F 71% 30.34 in 10.0 mi West 5.8 mph - N/A   Clear
2:52 AM 24.1 °F 18.2 °F 16.0 °F 71% 30.34 in 10.0 mi WSW 4.6 mph - N/A   Clear
3:52 AM 25.0 °F 19.3 °F 16.0 °F 69% 30.33 in 10.0 mi WSW 4.6 mph - N/A   Clear
4:52 AM 24.1 °F 18.2 °F 15.1 °F 69% 30.35 in 10.0 mi WNW 4.6 mph - N/A   Clear
5:52 AM 24.1 °F 17.0 °F 16.0 °F 71% 30.35 in 10.0 mi West 5.8 mph - N/A   Clear
6:52 AM 24.1 °F 19.7 °F 16.0 °F 71% 30.37 in 8.0 mi West 3.5 mph - N/A   Clear
7:52 AM 25.0 °F 19.3 °F 17.1 °F 72% 30.38 in 8.0 mi West 4.6 mph - N/A   Clear
8:38 AM 27.0 °F 20.5 °F 18.0 °F 69% 30.34 in 8.0 mi WSW 5.8 mph - N/A   Overcast
8:52 AM 28.0 °F 21.7 °F 18.0 °F 66% 30.38 in 8.0 mi WSW 5.8 mph - N/A   Overcast
9:52 AM 30.0 °F 21.7 °F 19.9 °F 66% 30.40 in 8.0 mi WNW 9.2 mph - N/A   Overcast
10:52 AM 30.9 °F 23.5 °F 21.0 °F 67% 30.41 in 8.0 mi WNW 8.1 mph - N/A   Overcast
11:52 AM 34.0 °F 28.8 °F 23.0 °F 64% 30.39 in 8.0 mi WNW 5.8 mph - N/A   Overcast
12:52 PM 36.0 °F 31.1 °F 24.1 °F 62% 30.38 in 9.0 mi NW 5.8 mph - N/A   Overcast
1:52 PM 37.0 °F - 26.1 °F 65% 30.38 in 10.0 mi Calm Calm - N/A   Overcast
2:12 PM 39.0 °F - 26.1 °F 60% 30.36 in 10.0 mi Calm Calm - N/A   Scattered Clouds
2:52 PM 39.0 °F 36.8 °F 27.0 °F 62% 30.38 in 10.0 mi NW 3.5 mph - N/A   Clear
3:52 PM 37.0 °F 34.5 °F 26.1 °F 65% 30.40 in 10.0 mi NNW 3.5 mph - N/A   Clear
4:52 PM 36.0 °F 33.3 °F 26.1 °F 67% 30.41 in 10.0 mi NE 3.5 mph - N/A   Clear
5:52 PM 34.0 °F - 25.0 °F 70% 30.42 in 10.0 mi Calm Calm - N/A   Clear
6:52 PM 30.0 °F - 24.1 °F 79% 30.44 in 9.0 mi Calm Calm - N/A   Clear
7:52 PM 28.9 °F - 24.1 °F 82% 30.44 in 8.0 mi Calm Calm - N/A   Clear
8:52 PM 28.9 °F - 24.1 °F 82% 30.45 in 8.0 mi Calm Calm - N/A   Clear
9:52 PM 30.0 °F - 24.1 °F 79% 30.45 in 7.0 mi Calm Calm - N/A   Clear
10:52 PM 27.0 °F - 23.0 °F 85% 30.46 in 7.0 mi Calm Calm - N/A   Clear
11:52 PM 26.1 °F - 23.0 °F 88% 30.45 in 6.0 mi Calm Calm - N/A   Clear